SCP
-0 -0 -0 -0 -0 -0 -0 -0 -0 -0 -0 -0 -0 -0 0 -0 -0 -0 -0 -0 -0 -0 -0 0 0 -0 0 0 -0 0 0 0 0 -0 -0 -0 -0 -0 0 0 0 -0 0 0 -0
-0 -0 -0 -0 -0 -0 -0 -0 -0 -0 -0 -0 -0 0 0 0 0 0 -0 -0 0 -0 0 0 0 0 0 0 -0 -0 0 0 -0 -0 -0 -0 -0 -0 -0 -0 -0 0 -0 0 0
-0 -0 -0 -0 -0 -0 -0 -0 -0 -0 -0 0 -0 0 0 -0 -0 0 -0 -0 -0 -0 -0 0 0 0 0 0 0 0 0 0 0 -0 -0 -0 -0 -0 -0 -0 0 0 0 0 0
-0 -0 -0 -0 -0 -0 -0 -0 -0 0 -0 0 0 0 -0 -0 0 0 -0 -0 -0 -0 -0 0 0 0 0 0 0 0 0 0 0 -0 -0 -0 -0 -0 -0 0 0 0 0 0 0
-0 -0 -0 -0 -0 -0 -0 -0 -0 -0 -0 -0 0 0 -0 0 0 0 -0 -0 0 -0 0 0 0 0 0 0 0 0 0 0 0 -0 -0 -0 -0 -0 -0 0 0 0 0 0 0
-0 -0 -0 -0 -0 -0 -0 -0 -0 -0 -0 -0 -0 -0 0 0 0 0 0 0 0 0 0 0 0 0 0 0 0 0 0 0 -0 -0 -0 -0 -0 0 0 0 0 0 0 0 0
-0 -0 -0 -0 -0 -0 -0 -0 -0 0 0 0 0 0 0 -0 0 0 0 0 0 0 0 0 0 0 0 0 0 0 0 0 0 -0 -0 -0 -0 0 0 0 0 0 0 0 0
-0 -0 -0 -0 -0 -0 -0 -0 0 0 0 0 0 0 0 0 0 0 0 0 0 0 0 0 0 0 0 0 0 0 0 0 0 0 0 0 0 0 0 0 0 0 0 0 0
-0 -0 -0 -0 -0 -0 -0 -0 0 0 0 0 0 0 0 0 0 0 0 0 0 0 0 0 0 0 0 0 0 0 0 0 0 0 0 0 0 0 0 0 0 0 0 0 0
-0 -0 -0 -0 -0 -0 -0 0 0 0 0 0 0 0 0 0 0 0 0 0 0 0 0 0 0 0 0 0 0 0 0 0 0 0 0 0 0 0 0 0 0 0 0 0 0
0 0 -0 -0 -0 -0 0 0 0 0 0 0 0 0 0 0 0 0 0 0 0 0 0 0 0 0 0 0 0 0 0 0 0 0 0 0 0 0 0 0 0 0 0 0 0
0 0 0 0 0 0 0 0 0 0 0 0 0 0 0 0 0 0 0 0 0 0 0 0 0 0 0 0 0 0 0 0 0 0 0 0 0 0 0 0 0 0 0 0 0
0 0 0 0 0 0 0 0 -0 -0 0 0 0 0 0 0 0 0 0 0 0 0 0 0 0 0 0 0 0 0 0 0 0 0 0 0 0 0 0 0 0 0 0 0 0
0 0 0 0 0 0 0 -0 -0 -0 0 0 0 0 0 0 0 0 0 0 0 0 0 0 0 0 0 0 0 0 0 0 0 0 0 0 0 0 0 0 0 0 0 0 0
0 0 -0 0 0 0 0 0 -0 0 0 0 0 0 0 0 0 0 0 0 0 0 0 0 0 0 0 0 0 0 0 0 0 0 0 0 0 0 0 0 0 0 0 0 0
0 0 0 0 0 0 0 0 0 0 0 0 0 0 0 0 0 0 0 0 0 0 0 0 0 0 0 0 0 0 0 0 0 0 0 0 0 0 0 0 0 0 0 0 0
0 0 0 0 0 0 0 0 0 0 0 0 0 0 0 0 0 0 0 0 0 0 0 0 0 0 0 0 0 0 0 0 0 0 0 0 0 0 0 0 0 0 0 0 0
0 0 0 0 0 0 0 0 0 0 0 0 0 0 0 0 0 0 0 0 0 0 0 0 0 0 0 0 0 0 0 0 0 0 0 0 0 0 0 0 0 0 0 0 0
0 0 0 0 0 0 0 0 0 0 0 0 0 0 0 0 0 0 0 0 0 0 0 0 0 0 0 0 0 0 0 0 0 0 0 0 0 0 0 0 0 0 0 0 0
0 0 0 0 0 0 0 0 0 0 0 0 0 0 0 0 0 0 0 0 0 0 0 0 0 0 0 0 0 0 0 0 0 0 0 0 0 0 0 0 0 0 0 0 0
0 0 0 0 0 0 0 0 0 0 0 0 0 0 0 0 0 0 0 0 0 0 0 0 0 0 0 0 0 0 0 0 0 0 0 0 0 0 0 0 0 0 0 0 0
0 0 0 0 0 0 0 0 0 0 0 0 0 0 0 0 0 0 0 0 0 0 0 0 0 0 0 0 0 0 0 0 0 0 0 0 0 0 0 0 0 0 0 0 0
0 0 0 0 0 0 0 0 0 0 0 0 0 0 0 0 0 0 0 0 0 0 0 0 0 0 0 0 0 0 0 0 0 0 0 0 0 0 0 0 0 0 0 0 0
0 0 0 0 0 0 0 0 0 0 0 0 0 0 0 0 0 0 0 0 0 0 0 0 0 0 0 0 0 0 0 0 0 0 0 0 0 0 0 0 0 0 0 0 0
0 0 0 0 0 0 0 0 0 0 0 0 0 0 0 0 0 0 0 0 0 0 0 0 0 0 0 0 0 0 0 0 0 0 0 0 0 0 0 0 0 0 0 0 0
0 0 0 0 0 0 0 0 0 0 0 0 0 0 0 0 0 0 0 0 0 0 0 0 0 0 0 0 0 0 0 0 0 0 0 0 0 -0 0 0 0 0 0 0 0
0 0 0 0 0 0 0 0 0 0 0 0 0 0 0 0 0 0 0 0 0 0 0 0 0 0 0 0 0 0 0 0 0 0 0 0 0 0 0 0 0 0 0 0 0
Wind_Speed_500mb
29 31 30 28 25 22 20 25 28 29 25 26 11 12 13 29 51 15 21 19 18 18 18 22 29 26 21 10 7 4 8 4 5 3 8 7 4 3 4 8 15 14 14 12 21
22 20 20 20 20 21 16 17 29 28 24 22 17 21 2 6 24 45 24 12 11 18 24 25 22 22 11 8 9 11 8 5 3 3 2 8 3 9 4 10 7 9 13 13 17
18 17 18 18 20 20 17 12 24 28 21 17 22 8 7 5 6 33 25 20 21 25 26 30 27 21 15 14 15 9 7 11 3 2 4 5 2 5 4 1 3 11 15 17 20
17 18 18 18 20 21 18 16 19 22 19 20 5 8 24 7 6 23 28 16 19 20 24 24 17 10 11 9 10 12 13 11 4 3 3 3 10 4 3 6 7 8 11 17 21
16 16 18 19 20 23 21 18 17 17 14 16 11 6 6 17 15 20 30 24 12 16 19 21 20 14 10 10 7 10 8 11 12 7 2 6 8 8 13 11 6 7 10 13 19
15 16 18 19 20 21 21 20 15 16 9 9 16 7 3 12 17 20 24 28 24 19 14 8 12 25 21 10 9 11 17 15 4 6 3 7 7 5 12 22 11 10 11 13 18
17 19 20 21 22 23 21 18 16 14 9 3 3 6 24 15 20 22 21 26 30 25 27 23 14 2 17 10 17 23 9 1 4 11 4 15 5 15 16 24 16 12 10 13 17
16 16 19 20 21 21 21 18 12 11 10 6 3 6 12 14 17 15 13 18 22 23 28 25 24 25 11 26 10 5 8 3 1 16 3 8 16 7 27 27 22 16 13 12 15
15 15 16 18 18 19 18 16 8 14 4 6 6 7 8 10 16 14 15 12 17 20 17 16 14 14 9 7 9 13 5 2 9 11 9 9 16 13 18 24 28 22 21 20 20
20 20 19 17 17 18 18 16 4 7 0 2 6 6 6 7 13 13 11 12 7 11 7 5 11 9 10 9 7 5 1 6 8 9 7 11 38 29 50 43 51 55 42 29 25
15 18 21 20 19 18 16 7 4 4 20 15 11 7 7 7 12 16 3 9 9 10 7 13 14 8 1 7 5 8 4 4 8 5 11 8 27 43 39 49 56 47 43 38 31
14 15 16 16 16 16 14 6 14 5 6 13 8 8 12 11 3 18 9 5 12 7 9 13 7 5 4 5 4 3 2 7 11 3 7 13 37 28 17 21 44 56 44 42 35
15 15 15 15 9 11 15 16 10 8 6 10 11 9 8 10 11 22 13 9 12 11 10 11 6 2 1 7 6 5 3 4 5 19 4 15 16 11 4 5 11 37 47 43 36
14 15 14 17 4 14 12 15 14 9 10 10 11 10 10 3 8 20 12 6 10 9 7 10 3 2 2 4 1 3 4 4 4 10 7 10 10 13 8 11 8 26 43 45 37
15 15 14 12 8 8 8 12 11 4 7 2 6 4 10 9 6 14 18 8 7 7 5 2 4 2 3 3 1 4 2 2 4 3 6 1 3 16 8 11 13 31 44 42 34
15 15 13 11 9 8 9 8 2 12 9 6 5 7 4 11 9 11 8 11 10 7 13 5 2 5 5 5 2 4 5 6 6 4 5 4 6 13 8 11 6 13 41 40 31
19 16 14 11 7 6 8 5 11 9 6 9 2 7 5 6 5 9 5 6 2 9 5 9 4 2 2 2 5 6 6 6 10 7 9 5 3 24 10 13 12 14 20 25 26
21 19 16 13 9 7 5 9 8 5 13 4 7 6 4 6 1 3 5 3 5 9 6 8 9 0 7 3 1 4 3 8 9 5 9 8 13 13 13 16 35 17 16 19 24
26 24 21 15 9 5 2 8 15 14 11 17 5 8 8 3 5 4 4 6 7 9 14 9 6 1 6 4 2 4 3 4 10 4 5 7 16 21 13 19 20 20 22 24 20
31 26 28 25 13 10 7 12 9 10 11 4 14 7 11 8 6 7 3 8 10 3 3 6 5 3 3 1 5 1 5 6 6 1 10 9 11 17 11 9 15 16 30 22 21
31 12 18 15 19 9 7 15 11 15 15 13 13 8 11 12 12 8 11 8 13 12 9 7 7 3 7 8 11 3 0 7 5 7 8 6 12 15 15 15 19 26 35 20 25
29 7 23 26 8 5 5 11 8 9 15 8 3 10 17 15 11 5 14 10 20 23 15 12 10 7 14 2 2 4 5 9 8 10 6 2 19 9 15 14 19 26 30 28 40
20 23 31 44 9 7 6 7 9 9 12 10 12 12 6 13 1 11 11 3 25 16 13 15 3 3 12 6 7 5 9 8 7 5 12 9 17 2 4 8 21 29 37 45 69
22 6 13 42 14 13 11 10 10 24 11 14 8 6 5 11 6 8 8 6 17 14 10 13 4 13 14 11 10 6 9 11 12 7 8 24 55 50 38 22 33 55 64 62 59
37 14 25 12 14 14 15 19 13 14 15 26 8 16 18 11 8 12 8 6 2 14 9 9 11 7 7 8 8 12 11 19 26 32 19 62 34 56 28 20 42 54 60 63 60
38 18 20 14 21 44 25 24 27 11 23 14 10 30 22 19 23 26 18 11 13 11 13 1 4 5 9 2 14 20 21 29 39 37 44 61 63 74 85 79 64 54 42 44 52
62 44 21 27 16 24 24 38 39 29 28 28 44 14 26 45 21 11 22 22 27 23 19 13 12 6 11 7 10 21 35 46 24 13 36 39 62 48 38 29 44 50 51 49 49
Wind_Direction_500mb
74 76 70 66 63 53 40 35 38 37 28 31 206 185 62 53 47 88 69 35 38 45 60 112 130 136 127 104 103 113 66 72 17 84 172 334 350 23 77 96 67 68 67 16 342
64 63 65 54 43 40 32 38 25 18 26 23 40 187 322 27 38 45 50 71 94 92 97 105 113 124 92 74 33 61 82 142 228 172 243 326 38 345 17 33 34 54 41 22 7
57 49 48 49 22 26 41 13 7 13 22 42 73 107 264 238 37 26 56 88 124 119 110 110 113 109 72 53 21 39 117 153 54 47 11 321 345 352 135 319 299 327 355 0 2
40 34 28 19 16 12 16 2 357 12 14 27 90 52 49 156 85 33 52 83 129 131 136 133 134 73 67 68 31 93 50 129 123 28 229 315 318 312 267 209 323 312 334 342 351
26 23 17 11 8 3 5 1 353 5 6 16 31 34 68 76 66 41 47 55 122 122 146 123 119 107 100 93 76 87 142 97 101 58 131 328 286 262 252 222 265 270 294 319 343
8 6 6 1 1 1 1 355 351 352 359 22 40 25 57 75 39 45 53 51 77 140 139 158 113 116 98 85 91 131 130 126 150 21 197 337 279 308 236 210 229 244 273 305 325
355 353 353 352 355 354 355 353 347 350 354 2 60 44 72 74 50 45 63 66 72 94 102 101 117 160 114 96 111 131 86 19 325 327 247 328 255 228 209 199 223 242 265 275 305
347 345 346 347 348 349 349 345 350 359 1 2 52 83 83 63 51 55 71 81 79 100 96 92 86 75 60 119 85 80 49 68 259 354 329 14 273 260 200 204 234 251 262 282 292
338 338 337 339 340 343 336 332 321 356 340 16 35 126 92 64 38 51 63 100 106 107 87 84 76 76 69 69 33 13 173 302 321 37 321 39 271 283 206 230 246 254 270 273 283
341 336 332 334 335 334 332 330 296 15 47 76 62 95 56 2 32 28 64 75 118 137 94 73 64 71 31 53 216 190 85 310 267 347 347 262 264 263 261 248 253 271 259 256 266
338 336 334 336 334 339 346 340 309 241 43 72 46 69 16 4 31 19 97 65 65 64 53 31 66 85 80 8 123 115 112 293 270 52 338 228 287 280 257 254 249 256 230 238 254
336 337 341 340 340 351 2 69 67 88 59 58 49 58 28 16 32 33 43 79 48 64 342 29 93 208 273 8 116 87 69 313 284 336 1 331 295 291 270 243 235 223 223 231 246
332 336 341 344 347 356 32 60 53 26 67 26 33 19 9 20 30 5 36 68 81 48 13 114 150 194 100 44 84 49 64 63 262 321 240 308 291 332 342 296 238 220 227 231 245
329 332 345 347 1 360 21 18 18 13 73 304 352 9 354 21 35 22 31 68 37 143 84 84 204 138 79 90 95 157 139 119 308 20 291 18 282 303 313 305 230 217 220 227 244
336 332 347 4 354 7 5 357 359 80 24 291 334 349 21 46 338 18 32 54 74 80 100 169 145 156 219 181 138 156 134 163 131 90 10 323 46 272 338 278 244 227 225 232 251
351 343 341 353 354 1 348 344 357 42 261 338 308 351 47 31 21 351 31 62 107 93 48 83 13 23 5 313 261 22 95 67 55 73 19 268 133 277 213 208 260 235 234 236 245
333 339 337 339 336 336 339 332 36 123 328 285 257 19 75 4 19 35 26 31 102 62 348 358 342 316 51 338 355 56 63 331 354 6 227 352 276 247 257 234 211 224 225 220 224
317 320 320 315 311 320 351 48 98 236 219 206 165 105 116 343 321 6 93 1 173 109 102 144 312 127 5 88 237 49 147 150 236 264 283 329 240 251 214 277 235 225 221 230 243
298 304 304 288 273 254 139 58 208 204 160 157 92 86 305 333 161 21 231 218 211 177 160 135 257 42 55 0 97 152 86 184 102 66 29 240 286 292 262 247 206 221 216 229 270
279 287 279 265 242 193 82 232 214 183 140 172 179 163 194 238 143 155 158 212 177 188 13 231 46 357 350 90 39 280 158 70 10 314 286 278 274 244 282 255 231 225 222 227 283
259 276 254 222 193 189 173 225 235 220 182 166 211 160 212 188 173 215 213 279 174 154 111 132 107 282 27 202 184 138 180 52 117 157 201 289 251 217 231 229 231 235 236 236 303
223 211 226 192 147 112 182 206 175 195 206 229 226 201 191 168 176 237 218 228 177 160 163 188 141 193 220 280 321 293 212 163 131 243 241 215 269 262 233 251 235 238 238 248 314
207 201 195 183 175 205 253 254 239 168 200 181 215 207 179 184 258 196 200 189 173 167 167 186 219 34 333 348 2 205 197 188 105 104 206 149 262 324 280 244 261 261 271 275 305
198 177 176 197 225 161 158 227 220 206 201 180 167 116 147 205 208 213 236 194 197 192 176 158 142 176 192 195 130 194 226 191 148 153 191 225 271 271 259 272 282 276 280 289 289
206 223 186 182 214 202 183 165 176 185 217 192 190 200 174 182 170 215 164 134 132 189 155 138 208 171 258 207 179 206 185 196 204 210 208 267 244 266 271 266 282 290 292 289 294
217 175 185 199 171 188 188 209 201 196 155 226 206 209 183 173 190 200 150 184 190 174 168 192 224 118 290 242 218 255 216 232 228 228 245 256 273 262 277 279 277 279 283 287 295
224 223 205 189 163 173 198 208 215 190 216 211 209 172 197 219 204 271 181 186 165 156 173 156 141 114 264 354 332 291 226 210 221 189 224 244 244 272 270 262 269 275 284 286 283
Wind_Speed_850mb
29 31 30 28 25 22 20 25 28 29 25 26 11 12 13 29 51 15 21 19 18 18 18 22 29 26 21 10 7 4 8 4 5 3 8 7 4 3 4 8 15 14 14 12 21
22 20 20 20 20 21 16 17 29 28 24 22 17 21 2 6 24 45 24 12 11 18 24 25 22 22 11 8 9 11 8 5 3 3 2 8 3 9 4 10 7 9 13 13 17
18 17 18 18 20 20 17 12 24 28 21 17 22 8 7 5 6 33 25 20 21 25 26 30 27 21 15 14 15 9 7 11 3 2 4 5 2 5 4 1 3 11 15 17 20
17 18 18 18 20 21 18 16 19 22 19 20 5 8 24 7 6 23 28 16 19 20 24 24 17 10 11 9 10 12 13 11 4 3 3 3 10 4 3 6 7 8 11 17 21
16 16 18 19 20 23 21 18 17 17 14 16 11 6 6 17 15 20 30 24 12 16 19 21 20 14 10 10 7 10 8 11 12 7 2 6 8 8 13 11 6 7 10 13 19
15 16 18 19 20 21 21 20 15 16 9 9 16 7 3 12 17 20 24 28 24 19 14 8 12 25 21 10 9 11 17 15 4 6 3 7 7 5 12 22 11 10 11 13 18
17 19 20 21 22 23 21 18 16 14 9 3 3 6 24 15 20 22 21 26 30 25 27 23 14 2 17 10 17 23 9 1 4 11 4 15 5 15 16 24 16 12 10 13 17
16 16 19 20 21 21 21 18 12 11 10 6 3 6 12 14 17 15 13 18 22 23 28 25 24 25 11 26 10 5 8 3 1 16 3 8 16 7 27 27 22 16 13 12 15
15 15 16 18 18 19 18 16 8 14 4 6 6 7 8 10 16 14 15 12 17 20 17 16 14 14 9 7 9 13 5 2 9 11 9 9 16 13 18 24 28 22 21 20 20
20 20 19 17 17 18 18 16 4 7 0 2 6 6 6 7 13 13 11 12 7 11 7 5 11 9 10 9 7 5 1 6 8 9 7 11 38 29 50 43 51 55 42 29 25
15 18 21 20 19 18 16 7 4 4 20 15 11 7 7 7 12 16 3 9 9 10 7 13 14 8 1 7 5 8 4 4 8 5 11 8 27 43 39 49 56 47 43 38 31
14 15 16 16 16 16 14 6 14 5 6 13 8 8 12 11 3 18 9 5 12 7 9 13 7 5 4 5 4 3 2 7 11 3 7 13 37 28 17 21 44 56 44 42 35
15 15 15 15 9 11 15 16 10 8 6 10 11 9 8 10 11 22 13 9 12 11 10 11 6 2 1 7 6 5 3 4 5 19 4 15 16 11 4 5 11 37 47 43 36
14 15 14 17 4 14 12 15 14 9 10 10 11 10 10 3 8 20 12 6 10 9 7 10 3 2 2 4 1 3 4 4 4 10 7 10 10 13 8 11 8 26 43 45 37
15 15 14 12 8 8 8 12 11 4 7 2 6 4 10 9 6 14 18 8 7 7 5 2 4 2 3 3 1 4 2 2 4 3 6 1 3 16 8 11 13 31 44 42 34
15 15 13 11 9 8 9 8 2 12 9 6 5 7 4 11 9 11 8 11 10 7 13 5 2 5 5 5 2 4 5 6 6 4 5 4 6 13 8 11 6 13 41 40 31
19 16 14 11 7 6 8 5 11 9 6 9 2 7 5 6 5 9 5 6 2 9 5 9 4 2 2 2 5 6 6 6 10 7 9 5 3 24 10 13 12 14 20 25 26
21 19 16 13 9 7 5 9 8 5 13 4 7 6 4 6 1 3 5 3 5 9 6 8 9 0 7 3 1 4 3 8 9 5 9 8 13 13 13 16 35 17 16 19 24
26 24 21 15 9 5 2 8 15 14 11 17 5 8 8 3 5 4 4 6 7 9 14 9 6 1 6 4 2 4 3 4 10 4 5 7 16 21 13 19 20 20 22 24 20
31 26 28 25 13 10 7 12 9 10 11 4 14 7 11 8 6 7 3 8 10 3 3 6 5 3 3 1 5 1 5 6 6 1 10 9 11 17 11 9 15 16 30 22 21
31 12 18 15 19 9 7 15 11 15 15 13 13 8 11 12 12 8 11 8 13 12 9 7 7 3 7 8 11 3 0 7 5 7 8 6 12 15 15 15 19 26 35 20 25
29 7 23 26 8 5 5 11 8 9 15 8 3 10 17 15 11 5 14 10 20 23 15 12 10 7 14 2 2 4 5 9 8 10 6 2 19 9 15 14 19 26 30 28 40
20 23 31 44 9 7 6 7 9 9 12 10 12 12 6 13 1 11 11 3 25 16 13 15 3 3 12 6 7 5 9 8 7 5 12 9 17 2 4 8 21 29 37 45 69
22 6 13 42 14 13 11 10 10 24 11 14 8 6 5 11 6 8 8 6 17 14 10 13 4 13 14 11 10 6 9 11 12 7 8 24 55 50 38 22 33 55 64 62 59
37 14 25 12 14 14 15 19 13 14 15 26 8 16 18 11 8 12 8 6 2 14 9 9 11 7 7 8 8 12 11 19 26 32 19 62 34 56 28 20 42 54 60 63 60
38 18 20 14 21 44 25 24 27 11 23 14 10 30 22 19 23 26 18 11 13 11 13 1 4 5 9 2 14 20 21 29 39 37 44 61 63 74 85 79 64 54 42 44 52
62 44 21 27 16 24 24 38 39 29 28 28 44 14 26 45 21 11 22 22 27 23 19 13 12 6 11 7 10 21 35 46 24 13 36 39 62 48 38 29 44 50 51 49 49
Wind_Direction_850mb
74 76 70 66 63 53 40 35 38 37 28 31 206 185 62 53 47 88 69 35 38 45 60 112 130 136 127 104 103 113 66 72 17 84 172 334 350 23 77 96 67 68 67 16 342
64 63 65 54 43 40 32 38 25 18 26 23 40 187 322 27 38 45 50 71 94 92 97 105 113 124 92 74 33 61 82 142 228 172 243 326 38 345 17 33 34 54 41 22 7
57 49 48 49 22 26 41 13 7 13 22 42 73 107 264 238 37 26 56 88 124 119 110 110 113 109 72 53 21 39 117 153 54 47 11 321 345 352 135 319 299 327 355 0 2
40 34 28 19 16 12 16 2 357 12 14 27 90 52 49 156 85 33 52 83 129 131 136 133 134 73 67 68 31 93 50 129 123 28 229 315 318 312 267 209 323 312 334 342 351
26 23 17 11 8 3 5 1 353 5 6 16 31 34 68 76 66 41 47 55 122 122 146 123 119 107 100 93 76 87 142 97 101 58 131 328 286 262 252 222 265 270 294 319 343
8 6 6 1 1 1 1 355 351 352 359 22 40 25 57 75 39 45 53 51 77 140 139 158 113 116 98 85 91 131 130 126 150 21 197 337 279 308 236 210 229 244 273 305 325
355 353 353 352 355 354 355 353 347 350 354 2 60 44 72 74 50 45 63 66 72 94 102 101 117 160 114 96 111 131 86 19 325 327 247 328 255 228 209 199 223 242 265 275 305
347 345 346 347 348 349 349 345 350 359 1 2 52 83 83 63 51 55 71 81 79 100 96 92 86 75 60 119 85 80 49 68 259 354 329 14 273 260 200 204 234 251 262 282 292
338 338 337 339 340 343 336 332 321 356 340 16 35 126 92 64 38 51 63 100 106 107 87 84 76 76 69 69 33 13 173 302 321 37 321 39 271 283 206 230 246 254 270 273 283
341 336 332 334 335 334 332 330 296 15 47 76 62 95 56 2 32 28 64 75 118 137 94 73 64 71 31 53 216 190 85 310 267 347 347 262 264 263 261 248 253 271 259 256 266
338 336 334 336 334 339 346 340 309 241 43 72 46 69 16 4 31 19 97 65 65 64 53 31 66 85 80 8 123 115 112 293 270 52 338 228 287 280 257 254 249 256 230 238 254
336 337 341 340 340 351 2 69 67 88 59 58 49 58 28 16 32 33 43 79 48 64 342 29 93 208 273 8 116 87 69 313 284 336 1 331 295 291 270 243 235 223 223 231 246
332 336 341 344 347 356 32 60 53 26 67 26 33 19 9 20 30 5 36 68 81 48 13 114 150 194 100 44 84 49 64 63 262 321 240 308 291 332 342 296 238 220 227 231 245
329 332 345 347 1 360 21 18 18 13 73 304 352 9 354 21 35 22 31 68 37 143 84 84 204 138 79 90 95 157 139 119 308 20 291 18 282 303 313 305 230 217 220 227 244
336 332 347 4 354 7 5 357 359 80 24 291 334 349 21 46 338 18 32 54 74 80 100 169 145 156 219 181 138 156 134 163 131 90 10 323 46 272 338 278 244 227 225 232 251
351 343 341 353 354 1 348 344 357 42 261 338 308 351 47 31 21 351 31 62 107 93 48 83 13 23 5 313 261 22 95 67 55 73 19 268 133 277 213 208 260 235 234 236 245
333 339 337 339 336 336 339 332 36 123 328 285 257 19 75 4 19 35 26 31 102 62 348 358 342 316 51 338 355 56 63 331 354 6 227 352 276 247 257 234 211 224 225 220 224
317 320 320 315 311 320 351 48 98 236 219 206 165 105 116 343 321 6 93 1 173 109 102 144 312 127 5 88 237 49 147 150 236 264 283 329 240 251 214 277 235 225 221 230 243
298 304 304 288 273 254 139 58 208 204 160 157 92 86 305 333 161 21 231 218 211 177 160 135 257 42 55 0 97 152 86 184 102 66 29 240 286 292 262 247 206 221 216 229 270
279 287 279 265 242 193 82 232 214 183 140 172 179 163 194 238 143 155 158 212 177 188 13 231 46 357 350 90 39 280 158 70 10 314 286 278 274 244 282 255 231 225 222 227 283
259 276 254 222 193 189 173 225 235 220 182 166 211 160 212 188 173 215 213 279 174 154 111 132 107 282 27 202 184 138 180 52 117 157 201 289 251 217 231 229 231 235 236 236 303
223 211 226 192 147 112 182 206 175 195 206 229 226 201 191 168 176 237 218 228 177 160 163 188 141 193 220 280 321 293 212 163 131 243 241 215 269 262 233 251 235 238 238 248 314
207 201 195 183 175 205 253 254 239 168 200 181 215 207 179 184 258 196 200 189 173 167 167 186 219 34 333 348 2 205 197 188 105 104 206 149 262 324 280 244 261 261 271 275 305
198 177 176 197 225 161 158 227 220 206 201 180 167 116 147 205 208 213 236 194 197 192 176 158 142 176 192 195 130 194 226 191 148 153 191 225 271 271 259 272 282 276 280 289 289
206 223 186 182 214 202 183 165 176 185 217 192 190 200 174 182 170 215 164 134 132 189 155 138 208 171 258 207 179 206 185 196 204 210 208 267 244 266 271 266 282 290 292 289 294
217 175 185 199 171 188 188 209 201 196 155 226 206 209 183 173 190 200 150 184 190 174 168 192 224 118 290 242 218 255 216 232 228 228 245 256 273 262 277 279 277 279 283 287 295
224 223 205 189 163 173 198 208 215 190 216 211 209 172 197 219 204 271 181 186 165 156 173 156 141 114 264 354 332 291 226 210 221 189 224 244 244 272 270 262 269 275 284 286 283